Location: Mountain Grove
(34.0887°N, 86.6172°W)
Time: 13:42:58
(UTC+00:00)

Cosmos 468 Rocket - Pass Details

Date: 14 July 2020
Orbit: 743 x 780 km, 74.0° (Epoch: 12 August)

Event Time Altitude Azimuth Distance (km) Brightness Sun altitude
Rises 09:17:53 0° 338° (NNW) 3,264 7.5 -15.9°
Reaches altitude 10° 09:20:18 10° 335° (NNW) 2,335 6.7 -15.6°
Maximum altitude 09:25:30 59° 257° (WSW) 901 4.1 -14.7°
Drops below altitude 10° 09:30:41 10° 178° (S) 2,322 6.1 -13.9°
Sets 09:33:05 0° 175° (S) 3,243 6.9 -13.5°
